Creek Data

    Home     View Charts     View Raw Data     Messages

ID Distance Battery Voltage Battery Current Internal Temp Internal Humidity External Temp Solar Input rssi snr Time Stamp Record
33540 14.7 3.88 -5 45 38 47 0 -71 8 02/27/2025 02:15 AM 15234
33539 14.7 3.88 -5 45 38 47 0.1 -70 8 02/27/2025 02:00 AM 15233
33538 14.7 3.88 -5 44 38 47 0.1 -70 9 02/27/2025 01:45 AM 15232
33537 14.7 3.88 -5 44 38 47 0.1 -70 9 02/27/2025 01:30 AM 15231
33536 14.7 3.88 -5 44 38 48 0 -70 8 02/27/2025 01:15 AM 15230
33535 14.7 3.88 -5 44 38 47 0 -70 8 02/27/2025 01:00 AM 15229
33534 14.7 3.93 -5 45 38 46 0 -71 8 02/27/2025 12:45 AM 15228
33533 14.7 3.88 -5 45 39 47 0 -70 8 02/27/2025 12:30 AM 15227
33532 14.6 3.93 -5 45 39 49 0.1 -71 8 02/27/2025 12:15 AM 15226
33531 14.7 3.88 -5 46 39 48 0 -70 8 02/27/2025 12:00 AM 15225
33530 14.7 3.93 -5 46 39 50 0 -69 8 02/26/2025 11:45 PM 15224
33529 14.6 3.88 -5 46 39 50 0 -70 8 02/26/2025 11:30 PM 15223
33528 14.6 3.94 -5 46 40 49 0 -70 8 02/26/2025 11:15 PM 15222
33527 14.7 3.88 -5 47 40 49 0 -70 8 02/26/2025 11:00 PM 15221
33526 14.7 3.94 -5 48 40 49 0.1 -70 8 02/26/2025 10:45 PM 15220
33525 14.7 3.88 -5 50 39 51 0 -70 8 02/26/2025 10:30 PM 15219
33524 14.7 3.94 -5 53 39 56 0 -69 8 02/26/2025 10:00 PM 15217
33523 14.6 3.89 -5 53 38 56 0 -69 8 02/26/2025 09:45 PM 15216
33522 14.7 3.94 -5 53 39 56 0 -69 8 02/26/2025 09:30 PM 15215
33521 14.6 3.89 -5 53 39 57 0 -69 8 02/26/2025 09:15 PM 15214
33520 14.7 3.89 -5 53 39 55 0 -70 8 02/26/2025 09:00 PM 15213
33519 14.7 3.94 -5 53 40 57 0 -70 8 02/26/2025 08:45 PM 15212
33518 14.7 3.89 -5 53 40 57 0.1 -69 8 02/26/2025 08:30 PM 15211
33517 14.7 3.89 -5 53 40 57 0.1 -69 8 02/26/2025 08:15 PM 15210
33516 14.7 3.89 -5 53 41 56 0 -69 8 02/26/2025 08:00 PM 15209